Вернуться в каталог

LEMUR-2 FIKRETDENGIZ

АктивенНаукаSSO
NORAD 67363·PAYLOAD·🇺🇸 United States

Запущен Jan 11, 2026 с Vandenberg Space Force Base

Loading…

Ближайшие Пролёты (ближайшие 24 часа)

TLE

СвежийSource: Space-Track

Эпоха: Sep 14, 2026, 11:11 UTC

1 67363U 26004A   26257.46653878  .00003160  00000-0  34252-3 0  9995
2 67363  97.8083 254.7183 0007971 195.4172 164.6804 14.88890026 36560

Отслеживайте LEMUR-2 FIKRETDENGIZ в реальном времени с AllMySat

Download on the App Store